Weather History for Bloomington, IN

Change the Weather History Date:

Thursday, August 1, 2013

  Actual Average Record
Temperature  
Mean Temperature 71 °F 74 °F  
Max Temperature 82 °F 84 °F 94 °F (2012)
Min Temperature 60 °F 63 °F 57 °F (1997)
Degree Days  
Heating Degree Days 0 0  
Month to date heating degree days 0 0  
Since 1 June heating degree days 11 17  
Since 1 July heating degree days 4 2  
Cooling Degree Days 6 9  
Month to date cooling degree days 6 9  
Year to date cooling degree days 594 575  
Since 1 June cooling degree days 475 493  
Growing Degree Days 22 (Base 50)    
Moisture  
Dew Point 64 °F    
Average Humidity 73    
Maximum Humidity 100    
Minimum Humidity 45    
Precipitation  
Precipitation 0.00 in 0.12 in 0.18 in (2003)
Month to date precipitation 0.00 0.12  
Year to date precipitation 28.84 29.79  
Sea Level Pressure  
Sea Level Pressure 29.99 in    
Wind  
Wind Speed 2 mph (NNW)    
Max Wind Speed 12 mph    
Max Gust Speed 16 mph    
Visibility 8 miles    
Events Rain    
T = Trace of Precipitation, MM = Missing Value Source: NWS Daily Summary

Daily Weather History Graph

Daily Weather History Graph

Search for Another Location

Airport:

Trip Planner

Search our weather history database for the weather conditions in past years. The results will help you decide how hot, cold, wet, or windy it might be!

Date:

Astronomy

Aug. 01, 2013 Rise Set
Actual Time 6:47 AM EDT 8:57 PM EDT
Civil Twilight 6:17 AM EDT 9:27 PM EDT
Nautical Twilight 5:40 AM EDT 10:04 PM EDT
Astronomical Twilight 5:00 AM EDT 10:43 PM EDT
Moon 2:23 AM EDT (8/1) 5:06 PM EDT (8/1)
Length of Visible Light 15h 10m
Length of Day
14h 10m
Waning Crescent, 23% of the Moon is Illuminated
Aug 1
Waning Crescent
Aug 6
New
Aug 14
First Quarter
Aug 20
Full
Aug 28
Last Quarter

Hourly Weather History & Observations

Time (EDT) Temp. Heat Index Dew Point Humidity Pressure Visibility Wind Dir Wind Speed Gust Speed Precip Events Conditions
12:38 AM 71.6 °F - 69.8 °F 94% 29.98 in 6.0 mi Calm Calm - 0.01 in Rain Light Rain
12:45 AM 71.6 °F - 69.8 °F 94% 29.98 in 6.0 mi Calm Calm - 0.01 in Rain Light Rain
12:53 AM 71.1 °F - 69.1 °F 93% 29.97 in 6.0 mi Calm Calm - 0.01 in   Mostly Cloudy
12:59 AM 71.6 °F - 69.8 °F 94% 29.99 in 7.0 mi NNE 6.9 mph - N/A   Mostly Cloudy
1:53 AM 69.1 °F - 68.0 °F 96% 29.96 in 5.0 mi Calm Calm - N/A   Mostly Cloudy
2:53 AM 68.0 °F - 66.0 °F 93% 29.96 in 7.0 mi Calm Calm - N/A   Clear
3:53 AM 66.9 °F - 64.9 °F 93% 29.96 in 7.0 mi Calm Calm - N/A   Clear
4:53 AM 66.0 °F - 64.9 °F 96% 29.96 in 5.0 mi Calm Calm - N/A   Scattered Clouds
4:58 AM 66.2 °F - 64.4 °F 94% 29.98 in 5.0 mi Calm Calm - N/A   Mostly Cloudy
5:12 AM 66.2 °F - 64.4 °F 94% 29.97 in 5.0 mi Calm Calm - N/A   Mostly Cloudy
5:53 AM 64.9 °F - 64.0 °F 97% 29.97 in 4.0 mi Calm Calm - N/A   Mostly Cloudy
6:53 AM 64.9 °F - 64.0 °F 97% 29.98 in 3.0 mi Calm Calm - N/A   Overcast
7:44 AM 66.2 °F - 64.4 °F 94% 30.01 in 4.0 mi Calm Calm - N/A   Overcast
7:53 AM 66.0 °F - 64.9 °F 96% 29.99 in 3.0 mi Calm Calm - N/A   Mostly Cloudy
8:11 AM 66.2 °F - 64.4 °F 94% 30.01 in 4.0 mi Calm Calm - N/A   Scattered Clouds
8:46 AM 69.8 °F - 66.2 °F 88% 30.02 in 6.0 mi Calm Calm - N/A   Mostly Cloudy
8:53 AM 69.1 °F - 66.0 °F 90% 30.00 in 6.0 mi Calm Calm - N/A   Mostly Cloudy
9:06 AM 69.8 °F - 66.2 °F 88% 30.02 in 8.0 mi Variable 3.5 mph - N/A   Overcast
9:41 AM 71.6 °F - 66.2 °F 83% 30.03 in 10.0 mi NW 3.5 mph - N/A   Scattered Clouds
9:53 AM 72.0 °F - 64.9 °F 78% 30.01 in 10.0 mi Variable 3.5 mph - N/A   Partly Cloudy
10:53 AM 75.0 °F - 64.0 °F 69% 30.01 in 10.0 mi North 4.6 mph - N/A   Clear
11:53 AM 77.0 °F - 61.0 °F 58% 30.02 in 10.0 mi North 8.1 mph - N/A   Clear
12:53 PM 79.0 °F - 60.1 °F 52% 30.02 in 10.0 mi North 6.9 mph 16.1 mph N/A   Partly Cloudy
1:53 PM 80.1 °F 81.1 °F 61.0 °F 52% 30.01 in 10.0 mi NW 5.8 mph - N/A   Scattered Clouds
2:53 PM 81.0 °F 81.3 °F 59.0 °F 47% 30.00 in 10.0 mi Variable 6.9 mph - N/A   Scattered Clouds
3:53 PM 80.1 °F 80.9 °F 60.1 °F 50% 29.99 in 10.0 mi WNW 5.8 mph - N/A   Partly Cloudy
4:53 PM 81.0 °F 81.1 °F 57.9 °F 45% 29.98 in 10.0 mi Variable 5.8 mph - N/A   Partly Cloudy
5:53 PM 81.0 °F 81.1 °F 57.9 °F 45% 29.98 in 10.0 mi WNW 6.9 mph - N/A   Clear
6:53 PM 79.0 °F - 57.9 °F 48% 29.97 in 10.0 mi Variable 4.6 mph - N/A   Clear
7:53 PM 77.0 °F - 60.1 °F 56% 29.96 in 10.0 mi Calm Calm - N/A   Clear
8:53 PM 70.0 °F - 64.0 °F 81% 29.97 in 10.0 mi Calm Calm - N/A   Clear
9:53 PM 66.0 °F - 62.1 °F 87% 29.98 in 10.0 mi Calm Calm - N/A   Clear
10:53 PM 64.0 °F - 61.0 °F 90% 29.98 in 10.0 mi Calm Calm - N/A   Clear
11:53 PM 63.0 °F - 60.1 °F 90% 29.99 in 10.0 mi Calm Calm - N/A   Clear